STARLINK-32370, 61635

Orbit data source: Space-Track

STARLINK-32370, 61635 is a payload satellite owned by SpaceX/Seattle (US) in LEO that was launched on Wed, 23 Oct 2024 UTC via an FALCON 9 launch vehicle from the Air Force Eastern Test Range (AFETR). Payload-class satellites include a variety of spacecraft equipped with specific instruments for various scientific and technological missions. These include communications satellites like Starlink; space stations such as the ISS; scientific satellites like the Hubble; Earth observation satellites from companies like Planet Labs, Umbra, and HawkEye 360; GPS; miniature CubeSats for education and research; and military/defense satellites.

Loading next visibility...
Identifier
61635, 2024-191Q
Orbit
LEO
Last TLE update
5 hours ago
Origin
Manufacturer
SpaceX/Seattle
Mission
Operational Commercial Communications
Bus & Motor
STARLINK V2M, Unknown motor
Mass
730 kg wet, ~700 kg dry
Launch date (UTC)
2024-10-23 (8 months ago)
Launch vehicle
FALCON 9
Launch site
Air Force Eastern Test Range (AFETR)
Object type
Payload
Rocket body
Debris
Shape & HBR
Box + 2 Pan, 29 m
Radar Cross Section
36.964 m², Large (>1 m²)

Expand to show TLE details & history

TLE from 5 hours ago
0 STARLINK-32370
1 61635U 24191Q   25173.40999438  .00001165  00000-0  51837-4 0  9993
2 61635  43.0017 184.1099 0000830 287.8280  72.2481 15.27577903 38434
Epoch: 2025-06-22T09:50Z
TLE epoch observation values (Epoch: 2025-06-22T09:50:23.514Z)
Latitude
-0.00002°
Longitude
125.67688°
Altitude
482.657 km
Speed
7.626 km/s
True Right ascension
12h 16m 26s
True Declination
0° 00' 00"
Sunlit
Object was in daylight at epoch
Visualization orbit readout
Latitude
21.38006°
Longitude
-80.25865°
Altitude
482.965 km
Speed
7.627 km/s
Apparent Right ascension
19h 20m 14s
Apparent Declination
-16° 15' 32"
Sunlit
Object is in daylight
Visualization observer readout
Local Sidereal Time
02:15:14
Azimuth
265.809° W
Elevation
-20.773°
Doppler factor
1
Orbital elements
Apogee altitude
485.57 km
Perigee altitude
484.431 km
Semi-major axis
6,863.137 km
Eccentricity
0.00008
Inclination
43.0017°
RAAN
184.1099°
Arg. of periapsis
287.828°
True anomaly
Unknown
Mean anomaly
72.2481°
Eccentric anomaly
Unknown
Mean motion
3.81733 °/min
Orbital period
94.31 mins
BSTAR
0.000051837
Loading maneuver chart data...
Loading SW <> Apogee altitude chart data...
Loading historical data...
Loading historical data...
Loading historical data...
Loading historical data...
Loading historical data...
Loading historical data...
Loading historical data...

STARLINK-32370 Visibility forecast

Observer location: undefined°, undefined°

Span
Click to sort rows by Start time (UTC) header in descending order
Start Az.
Max El. time (UTC)
Max El. Az.
Max El.
End time (UTC)
End Az.
4 mins2025-06-23 03:17:29.943Z184.183° SSW2025-06-23 03:19:29.943Z145.973° SSE18.847°2025-06-23 03:21:29.943Z106.608° ESE
6 mins2025-06-23 04:55:29.943Z246.626° WSW2025-06-23 04:58:29.943Z91.971° ESE43.491°2025-06-23 05:01:29.943Z72.847° E
5 mins2025-06-23 06:35:29.943Z292.941° NW2025-06-23 06:37:29.943Z12.666° NNE37.772°2025-06-23 06:40:29.943Z73.56° E
5 mins2025-06-23 08:14:29.943Z293.028° NW2025-06-23 08:16:29.943Z25.12° NE44.145°2025-06-23 08:19:29.943Z101.029° ESE
4 mins2025-06-23 09:53:29.943Z255.86° W2025-06-23 09:55:29.943Z202.377° SSW26.104°2025-06-23 09:57:29.943Z159.28° S
|